Fayetteville, NC

8:36 PM EST on February 25, 2017 (GMT -0500)
Simmons Army Air Field

Weather History for KFBG - January, 2014

Change the Weather History Date:

Thursday, January 23, 2014

  Actual Average Record
Temperature  
Mean Temperature 30 °F -  
Max Temperature 40 °F 49 °F 80 °F (1999)
Min Temperature 19 °F 31 °F 16 °F (2011)
Degree Days  
Heating Degree Days 36    
Moisture  
Dew Point 11 °F    
Average Humidity 52    
Maximum Humidity 89    
Minimum Humidity 26    
Precipitation  
Precipitation 0.00 in - - ()
Sea Level Pressure  
Sea Level Pressure 30.26 in    
Wind  
Wind Speed 3 mph (NW)    
Max Wind Speed 14 mph    
Max Gust Speed 20 mph    
Visibility 10 miles    
Events      
Averages and records for this station are not official NWS values.
T = Trace of Precipitation, MM = Missing Value Source: NWS Daily Summary

Daily Weather History Graph

Daily Weather History Graph

Search for Another Location

Airport or City:

Trip Planner

Search our weather history database for the weather conditions in past years. The results will help you decide how hot, cold, wet, or windy it might be!

Date:

Astronomy

Jan. 23, 2014 Rise Set
Actual Time 7:20 AM EST 5:35 PM EST
Civil Twilight 6:53 AM EST 6:02 PM EST
Nautical Twilight 6:22 AM EST 6:33 PM EST
Astronomical Twilight 5:52 AM EST 7:03 PM EST
Moon No Moon Rise 11:11 AM EST (1/23)
Length of Visible Light 11h 08m
Length of Day
10h 14m
Waning Gibbous, 55% of the Moon is Illuminated
Jan 23
Waning Gibbous
Jan 24
Last Quarter
Jan 30
New
Feb 6
First Quarter
Feb 14
Full

Hourly Weather History & Observations

Time (EST) Temp. Windchill Dew Point Humidity Pressure Visibility Wind Dir Wind Speed Gust Speed Precip Events Conditions
12:58 AM 19.9 °F - 17.2 °F 89% 30.11 in 10.0 mi Calm Calm - N/A   Clear
1:58 AM 20.1 °F - 16.3 °F 85% 30.12 in 10.0 mi Calm Calm - N/A   Clear
2:58 AM 21.4 °F - 13.6 °F 72% 30.13 in 10.0 mi Calm Calm - N/A   Clear
3:58 AM 20.8 °F - 15.3 °F 79% 30.14 in 10.0 mi Calm Calm - N/A   Clear
4:58 AM 20.3 °F 12.5 °F 13.6 °F 75% 30.17 in 10.0 mi North 5.8 mph - N/A   Clear
5:58 AM 19.4 °F 12.8 °F 12.7 °F 75% 30.19 in 10.0 mi North 4.6 mph - N/A   Clear
6:55 AM 19.4 °F 12.8 °F 12.7 °F 75% 30.23 in 10.0 mi NNW 4.6 mph - N/A   Clear
7:58 AM 19.0 °F - 12.7 °F 76% 30.25 in 10.0 mi Calm Calm - N/A   Mostly Cloudy
8:58 AM 22.8 °F 18.2 °F 13.1 °F 66% 30.28 in 10.0 mi North 3.5 mph - N/A   Clear
9:58 AM 28.9 °F 25.2 °F 13.6 °F 53% 30.30 in 10.0 mi NNE 3.5 mph - N/A   Partly Cloudy
10:58 AM 32.9 °F 28.5 °F 5.2 °F 31% 30.32 in 10.0 mi NNW 4.6 mph - N/A   Scattered Clouds
11:58 AM 33.8 °F - 6.8 °F 32% 30.30 in 10.0 mi Variable 1.2 mph - N/A   Clear
12:58 PM 35.1 °F 32.2 °F 7.3 °F 31% 30.26 in 10.0 mi Variable 3.5 mph - N/A   Clear
1:58 PM 38.3 °F 32.5 °F 6.4 °F 27% 30.24 in 10.0 mi West 8.1 mph - N/A   Clear
2:58 PM 39.6 °F 32.5 °F 7.5 °F 27% 30.25 in 10.0 mi WSW 11.5 mph - N/A   Clear
3:58 PM 40.3 °F 36.3 °F 7.3 °F 26% 30.26 in 10.0 mi NW 5.8 mph - N/A   Clear
4:58 PM 39.0 °F 33.4 °F 7.9 °F 28% 30.27 in 10.0 mi West 8.1 mph - N/A   Scattered Clouds
5:58 PM 36.0 °F 33.3 °F 8.6 °F 32% 30.30 in 10.0 mi West 3.5 mph - N/A   Scattered Clouds
6:58 PM 34.5 °F - 9.5 °F 35% 30.30 in 10.0 mi WSW 2.3 mph - N/A   Scattered Clouds
7:58 PM 30.6 °F 25.8 °F 12.0 °F 46% 30.33 in 10.0 mi NW 4.6 mph - N/A   Partly Cloudy
8:58 PM 27.9 °F 22.6 °F 14.0 °F 56% 30.35 in 10.0 mi NNW 4.6 mph - N/A   Mostly Cloudy
9:58 PM 30.0 °F 23.2 °F 11.3 °F 46% 30.38 in 10.0 mi North 6.9 mph - N/A   Mostly Cloudy
10:58 PM 28.6 °F 20.7 °F 9.0 °F 44% 30.41 in 10.0 mi North 8.1 mph - N/A   Clear
11:58 PM 26.2 °F 14.7 °F 3.6 °F 38% 30.42 in 10.0 mi North 13.8 mph 19.6 mph N/A   Clear